Winslow, AZ

3:03 AM MST on January 24, 2018 (GMT -0700)
Winslow-Lindbergh Regional

Weather History for KINW - May, 2013

Change the Weather History Date:

Wednesday, May 22, 2013

  Actual Average Record
Temperature  
Mean Temperature 69 °F 65 °F  
Max Temperature 89 °F 84 °F 98 °F (2005)
Min Temperature 48 °F 47 °F 30 °F (1975)
Degree Days  
Heating Degree Days 0 2  
Month to date heating degree days 75 92  
Since 1 July heating degree days 4184 4471  
Cooling Degree Days 4 3  
Month to date cooling degree days 23 33  
Year to date cooling degree days 30 37  
Growing Degree Days 18 (Base 50)    
Moisture  
Dew Point 17 °F    
Average Humidity 18    
Maximum Humidity 29    
Minimum Humidity 6    
Precipitation  
Precipitation 0.00 in 0.01 in 0.47 in (2009)
Month to date precipitation T 0.24  
Year to date precipitation 1.79 2.02  
Sea Level Pressure  
Sea Level Pressure 29.70 in    
Wind  
Wind Speed 15 mph (South)    
Max Wind Speed 35 mph    
Max Gust Speed 45 mph    
Visibility 10 miles    
Events      
T = Trace of Precipitation, MM = Missing Value Source: NWS Daily Summary

Daily Weather History Graph

Daily Weather History Graph

Search for Another Location

Airport or City:

Trip Planner

Search our weather history database for the weather conditions in past years. The results will help you decide how hot, cold, wet, or windy it might be!

Date:

Astronomy

May. 22, 2013 Rise Set
Actual Time 5:14 AM MST 7:25 PM MST
Civil Twilight 4:45 AM MST 7:53 PM MST
Nautical Twilight 4:10 AM MST 8:28 PM MST
Astronomical Twilight 3:33 AM MST 9:06 PM MST
Moon 4:56 PM MST (5/22) 3:14 AM MST (5/22)
Length of Visible Light 15h 08m
Length of Day
14h 10m
Waxing Gibbous, 92% of the Moon is Illuminated
May 22
Waxing Gibbous
May 24
Full
May 31
Last Quarter
Jun 8
New
Jun 16
First Quarter

Hourly Weather History & Observations

Time (MST) Temp. Dew Point Humidity Pressure Visibility Wind Dir Wind Speed Gust Speed Precip Events Conditions
12:56 AM 61.0 °F 16.0 °F 17% 29.74 in 10.0 mi SSW 9.2 mph - N/A   Clear
1:56 AM 57.9 °F 17.1 °F 20% 29.74 in 10.0 mi NNE 4.6 mph - N/A   Clear
2:56 AM 54.0 °F 17.1 °F 23% 29.74 in 10.0 mi East 5.8 mph - N/A   Clear
3:56 AM 48.9 °F 16.0 °F 27% 29.75 in 10.0 mi Calm Calm - N/A   Clear
4:56 AM 48.9 °F 17.1 °F 28% 29.75 in 10.0 mi ESE 5.8 mph - N/A   Clear
5:56 AM 48.9 °F 16.0 °F 27% 29.78 in 10.0 mi ESE 8.1 mph - N/A   Clear
6:56 AM 55.9 °F 18.0 °F 23% 29.78 in 10.0 mi ESE 10.4 mph - N/A   Clear
7:56 AM 64.9 °F 19.0 °F 17% 29.76 in 10.0 mi ESE 11.5 mph - N/A   Clear
8:56 AM 75.9 °F 19.0 °F 12% 29.73 in 10.0 mi ESE 11.5 mph - N/A   Clear
9:29 AM 80.6 °F 17.6 °F 10% 29.93 in 10.0 mi SSW 15.0 mph 21.9 mph N/A   Clear
9:56 AM 81.0 °F 17.1 °F 9% 29.70 in 10.0 mi South 12.7 mph 24.2 mph N/A   Clear
10:56 AM 82.9 °F 18.0 °F 9% 29.69 in 10.0 mi SSW 16.1 mph 28.8 mph N/A   Clear
11:56 AM 87.1 °F 19.0 °F 8% 29.65 in 10.0 mi SW 29.9 mph 38.0 mph N/A   Clear
12:56 PM 88.0 °F 18.0 °F 8% 29.65 in 10.0 mi SW 23.0 mph 38.0 mph N/A   Clear
1:56 PM 87.1 °F 19.0 °F 8% 29.65 in 10.0 mi SSW 26.5 mph 42.6 mph N/A   Clear
2:56 PM 87.1 °F 16.0 °F 7% 29.64 in 10.0 mi SW 29.9 mph 41.4 mph N/A   Clear
3:56 PM 87.1 °F 14.0 °F 7% 29.65 in 10.0 mi SW 25.3 mph 40.3 mph N/A   Clear
4:56 PM 84.9 °F 12.9 °F 7% 29.65 in 10.0 mi SW 28.8 mph 35.7 mph N/A   Clear
5:56 PM 82.0 °F 16.0 °F 8% 29.66 in 10.0 mi SW 23.0 mph 33.4 mph N/A   Clear
6:56 PM 79.0 °F 17.1 °F 10% 29.65 in 10.0 mi SSW 20.7 mph 29.9 mph N/A   Clear
7:56 PM 75.0 °F 18.0 °F 12% 29.65 in 10.0 mi SSW 25.3 mph 31.1 mph N/A   Clear
8:56 PM 70.0 °F 19.0 °F 14% 29.67 in 10.0 mi SSW 10.4 mph - N/A   Clear
9:56 PM 64.9 °F 19.0 °F 17% 29.68 in 10.0 mi South 10.4 mph - N/A   Clear
10:56 PM 62.1 °F 19.9 °F 20% 29.69 in 10.0 mi South 8.1 mph - N/A   Clear
11:56 PM 60.1 °F 21.0 °F 22% 29.68 in 10.0 mi South 6.9 mph - N/A   Clear